Location: Clyde
(45.1830°S, 169.3170°E)
Time: 10:55:16
(UTC+12:00)

Cosmos-2242 - Pass Details

Date: 14 May 2021
Orbit: 591 x 616 km, 82.5° (Epoch: 15 June)

Event Time Altitude Azimuth Distance (km) Brightness Sun altitude
Rises 17:55:29 0° 192° (SSW) 2,924 6.4 -5.8°
Reaches altitude 10° 17:57:45 10° 195° (SSW) 2,007 5.6 -6.2°
Maximum altitude 18:02:09 63° 275° (W) 693 3.7 -6.9°
Drops below altitude 10° 18:06:27 10° 356° (N) 1,963 6.0 -7.6°
Sets 18:08:39 0° 359° (N) 2,854 6.7 -8.0°
